User: anonymous   Login
Location: Unspecified
(0.0000°N, 0.0000°E)
Time: 02:02:20
(UTC+02:00)
Language:

Cosmos 1703 Rocket - Orbit

View from above orbital plane
View from above orbital plane
View from above satellite
View from above satellite

Ground track
Ground track

The orbit data is extracted from the following two-line orbital elements,

1 16263U 85108B   16180.28079946  .00000080  00000-0  68494-5 0  9995
2 16263  82.5049  86.3167 0021666  74.8788  45.3642 14.82925219651933
Epoch (UTC): 28 June 2016 06:44:21
Eccentricity: 0.0021666
inclination: 82.5049°
perigee height: 605 km
apogee height: 635 km
right ascension of ascending node: 86.3167°
argument of perigee: 74.8788°
revolutions per day: 14.82925219
mean anomaly at epoch: 45.3642°
orbit number at epoch: 65193

The dashed part of the orbit path shows where the satellite is in the earth's shadow,  

DLR